Location: Eppenbrunn
(49.1158°N, 7.5601°E)
Time: 16:46:10
(UTC+00:00)

Cosmos 2151 - Pass Details

Date: 09 April 2020
Orbit: 582 x 600 km, 82.5° (Epoch: 03 June)

Event Time Altitude Azimuth Distance (km) Brightness Sun altitude
Rises 21:01:13 0° 347° (NNW) 2,819 7.4 -24.2°
Reaches altitude 10° 21:03:25 10° 345° (NNW) 1,914 6.4 -24.4°
Enters shadow 21:07:33 65° 268° (W) 648 3.2 -24.8°
